OE3MQP-13 Weather Reports


time (UTC)temp
F
wind
direction
speed
knots
gust
knots
rain 1hr
in
rain 24hr
in
rain mn
in
humidity
%
barometer
mb
20260905221927 59 0.0 0.0 0.00 0.00 0.00 63
20260905215728 60 0.0 0.0 0.00 0.00 0.00 60
20260905213827 61 0.0 0.0 0.00 0.00 0.00 59
20260905210027 62 0.0 0.0 0.00 0.00 0.00 60
20260905205727 62 0.0 0.0 0.00 0.00 0.00 60
20260905201927 64 0.0 0.0 0.00 0.00 0.00 61
20260905200028 64 0.0 0.0 0.00 0.00 0.00 61
20260905195727 0 0.0 0.0 0.00 0.00 0.00
20260905193827 0 0.0 0.0 0.00 0.00 0.00
20260905191927 64 0.0 0.0 0.00 0.00 0.00 61
20260905190028 64 0.0 0.0 0.00 0.00 0.00 61
20260905185727 0 0.0 0.0 0.00 0.00 0.00
20260905183827 0 0.0 0.0 0.00 0.00 0.00
20260905181927 65 0.0 0.0 0.00 0.00 0.00 59
20260905180028 66 0.0 0.0 0.00 0.00 0.00 58
20260905175726 0 0.0 0.0 0.00 0.00 0.00
20260905173827 0 0.0 0.0 0.00 0.00 0.00
20260905171927 0 0.0 0.0 0.00 0.00 0.00
20260905170027 69 0.0 0.0 0.00 0.00 0.00 54
20260905165727 0 0.0 0.0 0.00 0.00 0.00
20260905163827 0 0.0 0.0 0.00 0.00 0.00
20260905161927 0 0.0 0.0 0.00 0.00 0.00
20260905155729 0 0.0 0.0 0.00 0.00 0.00
20260905153827 0 0.0 0.0 0.00 0.00 0.00
20260905151928 72 0.0 0.0 0.00 0.00 0.00 49
20260905150028 72 0.0 0.0 0.00 0.00 0.00 49
20260905145727 72 0.0 0.0 0.00 0.00 0.00 49
20260905143827 72 0.0 0.0 0.00 0.00 0.00 50
20260905141928 72 0.0 0.0 0.00 0.00 0.00 49
20260905140028 72 0.0 0.0 0.00 0.00 0.00 49
20260905135728 72 0.0 0.0 0.00 0.00 0.00 48
20260905133827 73 0.0 0.0 0.00 0.00 0.00 48
20260905131927 73 0.0 0.0 0.00 0.00 0.00 50
20260905130028 72 0.0 0.0 0.00 0.00 0.00 51
20260905125727 0 0.0 0.0 0.00 0.00 0.00
20260905123828 0 0.0 0.0 0.00 0.00 0.00
20260905121928 70 0.0 0.0 0.00 0.00 0.00 61
20260905120027 70 0.0 0.0 0.00 0.00 0.00 61
20260905115727 0 0.0 0.0 0.00 0.00 0.00
20260905113827 0 0.0 0.0 0.00 0.00 0.00
20260905111928 69 0.0 0.0 0.00 0.00 0.00 58
20260905110028 68 0.0 0.0 0.00 0.00 0.00 55
20260905105727 0 0.0 0.0 0.00 0.00 0.00
20260905103827 0 0.0 0.0 0.00 0.00 0.00
20260905101927 0 0.0 0.0 0.00 0.00 0.00
20260905100028 66 0.0 0.0 0.00 0.00 0.00 65
20260905095729 0 0.0 0.0 0.00 0.00 0.00
20260905091928 71 0.0 0.0 0.00 0.00 0.00 71
20260905090027 71 0.0 0.0 0.00 0.00 0.00 79
20260905085727 69 0.0 0.0 0.00 0.00 0.00 84
20260905083827 62 0.0 0.0 0.00 0.00 0.00 90
20260905081927 60 0.0 0.0 0.00 0.00 0.00 88
20260905080028 60 0.0 0.0 0.00 0.00 0.00 88
20260905075727 60 0.0 0.0 0.00 0.00 0.00 88
20260905073827 59 0.0 0.0 0.00 0.00 0.00 90
20260905071927 57 0.0 0.0 0.00 0.00 0.00 90
20260905070028 57 0.0 0.0 0.00 0.00 0.00 90
20260905065727 0 0.0 0.0 0.00 0.00 0.00
20260905063827 0 0.0 0.0 0.00 0.00 0.00
20260905061928 56 0.0 0.0 0.00 0.00 0.00 90
20260905060027 56 0.0 0.0 0.00 0.00 0.00 90
20260905055727 0 0.0 0.0 0.00 0.00 0.00
20260905053828 0 0.0 0.0 0.00 0.00 0.00
20260905051927 57 0.0 0.0 0.00 0.00 0.00 89
20260905050027 57 0.0 0.0 0.00 0.00 0.00 89
20260905045727 0 0.0 0.0 0.00 0.00 0.00
20260905043826 0 0.0 0.0 0.00 0.00 0.00
20260905041928 58 0.0 0.0 0.00 0.00 0.00 89
20260905040029 58 0.0 0.0 0.00 0.00 0.00 88
20260905035728 58 0.0 0.0 0.00 0.00 0.00 88
20260905033827 58 0.0 0.0 0.00 0.00 0.00 87
20260905023828 64 0.0 0.0 0.00 0.00 0.00 67
20260905021927 64 0.0 0.0 0.00 0.00 0.00 66
20260905020027 64 0.0 0.0 0.00 0.00 0.00 68
20260905015727 0 0.0 0.0 0.00 0.00 0.00
20260905013828 66 0.0 0.0 0.00 0.00 0.00 67
20260905011928 69 0.0 0.0 0.00 0.00 0.00 64
20260905010027 73 0.0 0.0 0.00 0.00 0.00 56
20260905005728 73 0.0 0.0 0.00 0.00 0.00 56
20260905003829 73 0.0 0.0 0.00 0.00 0.00 56
20260904235728 72 0.0 0.0 0.00 0.00 0.00 57
20260904233826 0 0.0 0.0 0.00 0.00 0.00
20260904231928 70 0.0 0.0 0.00 0.00 0.00 61
20260904230027 68 0.0 0.0 0.00 0.00 0.00 62
20260904225727 0 0.0 0.0 0.00 0.00 0.00
20260904223827 0 0.0 0.0 0.00 0.00 0.00